Temperature
12 13 13 14 15 15 16 16 17 18 18 18 17 17 17 17 16 16 16 16 17 17 17 17 17 17 17 17 17 16 16 16 16 16 16 16 16 16
12 12 13 13 14 15 15 16 17 17 17 18 17 17 17 16 16 16 16 16 16 17 17 17 17 17 17 17 17 16 16 16 16 16 16 16 16 16
11 11 12 12 13 14 14 15 16 16 17 17 17 17 16 16 16 15 15 16 16 16 17 17 17 17 17 17 16 16 16 16 16 16 16 15 15 15
11 11 11 11 12 13 13 14 15 16 16 16 16 16 16 16 15 15 15 15 16 16 16 16 16 16 16 16 16 16 16 16 16 15 15 15 15 15
11 11 11 11 11 12 12 13 14 15 15 15 15 15 15 15 15 14 14 14 15 15 15 16 16 16 16 16 16 16 16 16 16 15 15 15 15 15
10 10 10 11 11 11 11 12 13 14 14 15 15 15 15 14 14 14 13 13 13 14 14 14 15 15 15 15 16 16 15 15 15 15 15 15 15 14
10 10 10 10 10 11 11 11 12 13 13 14 14 14 14 14 14 13 13 12 12 12 13 13 14 14 14 15 15 15 15 15 15 14 14 14 14 14
10 10 10 10 10 10 10 10 11 12 12 13 14 14 14 14 14 13 13 12 12 12 12 12 12 13 13 14 14 14 14 14 14 14 14 14 13 13
9 9 9 10 10 10 10 10 10 11 12 12 13 13 14 14 14 13 13 12 12 12 12 11 11 12 12 12 13 13 13 13 13 13 13 13 13 13
9 9 9 10 10 10 10 10 10 11 11 12 12 13 13 14 14 14 13 12 12 12 11 11 11 11 11 12 12 12 12 12 13 13 13 13 13 13
8 9 9 9 9 10 9 9 10 10 10 11 12 12 12 13 13 13 12 12 11 11 11 11 11 11 11 11 11 11 11 12 12 12 12 12 12 12
8 8 9 9 9 9 9 9 9 9 10 10 11 11 12 12 13 13 13 12 12 11 11 11 11 11 10 10 10 11 11 11 11 11 12 12 12 12
7 8 8 9 9 9 9 9 9 9 9 10 10 11 11 12 12 12 13 13 13 12 12 11 11 11 11 10 9 10 11 11 11 11 11 11 11 11
7 8 8 8 9 9 9 9 9 9 9 9 10 10 11 11 12 12 12 12 13 13 13 13 12 11 12 11 10 10 10 10 10 10 10 10 10 10
7 7 8 8 9 9 9 9 9 9 9 9 10 10 11 11 11 11 12 12 11 12 12 12 12 12 12 12 12 11 10 10 10 10 9 9 9 9
7 7 7 8 8 8 9 9 9 9 9 9 10 10 10 11 11 11 11 11 11 11 11 11 11 11 11 11 12 11 10 10 9 9 9 9 8 8
7 7 7 8 8 8 8 9 9 9 9 9 10 10 10 10 10 11 11 11 11 11 11 10 10 10 11 11 11 10 10 10 9 9 8 8 8 8
7 7 7 8 8 8 8 9 9 9 9 9 10 10 10 10 10 10 10 11 11 11 11 10 10 10 10 10 10 10 10 9 9 9 8 8 8 8
7 7 7 8 8 8 9 9 9 9 9 9 10 10 10 10 10 10 10 10 10 10 10 10 10 10 9 9 10 10 10 9 9 9 8 8 8 9
7 7 8 8 8 9 9 9 9 9 10 10 10 10 10 10 10 10 10 10 10 10 10 10 10 10 10 10 10 10 10 10 9 9 9 9 9 9
8 8 8 8 9 9 9 9 9 10 10 10 10 10 10 10 9 10 10 10 10 10 10 10 10 10 10 11 10 10 10 10 10 9 9 9 9 9
8 8 8 9 9 9 9 9 9 9 9 9 10 10 10 10 9 9 9 9 9 10 10 10 10 10 10 11 11 10 10 10 10 10 10 10 10 10
8 8 9 9 9 9 9 9 9 9 9 9 9 9 9 9 9 9 9 9 9 9 9 9 9 10 10 11 11 10 10 10 10 10 10 10 10 10
Wind_Speed
5 5 5 5 6 6 6 5 3 4 5 5 5 6 6 7 10 7 8 9 10 12 14 15 16 17 17 18 19 20 21 21 21 21 21 21 21 21
5 5 5 5 6 7 6 5 4 4 3 4 5 8 8 8 8 9 10 10 7 8 10 12 14 14 14 15 15 15 16 17 17 17 17 17 17 17
7 7 7 6 5 6 7 6 5 3 4 2 4 9 9 10 8 9 10 8 7 7 9 10 11 12 12 12 12 12 12 12 12 13 13 13 13 13
9 9 8 7 7 6 6 7 6 4 3 3 5 6 9 10 9 8 7 9 8 11 13 13 13 13 13 13 12 12 12 12 11 10 9 9 9 9
10 10 9 8 8 6 6 6 6 6 4 3 5 6 6 9 10 9 10 8 8 11 14 15 15 16 16 16 16 16 15 15 14 13 12 12 11 10
10 10 9 9 9 8 7 7 7 7 6 5 5 8 8 9 9 9 8 7 6 8 10 13 16 17 16 17 17 17 18 18 18 18 18 17 16 15
11 11 11 11 12 10 7 6 7 7 7 6 6 7 8 10 10 8 9 8 7 6 7 7 8 8 10 14 15 17 19 20 20 20 20 20 19 18
11 11 11 11 12 13 12 10 8 8 8 7 6 8 10 9 9 11 11 10 5 5 6 6 7 7 6 9 13 17 19 20 20 20 20 20 20 19
10 10 13 14 13 11 12 13 11 9 8 7 7 7 9 10 11 12 12 11 6 8 7 7 7 8 7 11 15 17 19 20 20 20 20 20 20 20
11 11 11 10 9 9 10 11 10 10 9 7 6 6 6 6 9 10 11 9 9 7 6 6 7 7 8 9 12 16 18 19 20 20 20 21 21 20
10 11 11 11 11 11 9 10 10 9 10 10 8 6 6 7 7 9 12 13 10 6 4 5 7 8 6 6 9 13 16 18 19 20 21 22 22 20
8 9 11 11 12 12 9 8 9 9 8 9 8 7 7 7 9 10 13 14 11 6 5 6 10 6 5 4 5 8 10 12 16 18 20 20 16 12
6 7 7 11 12 13 11 7 7 7 7 8 8 7 7 7 9 9 9 12 12 6 10 8 10 6 6 6 5 6 8 8 10 10 13 12 8 7
4 4 4 9 12 13 10 7 8 7 6 6 7 8 8 8 9 10 9 8 7 8 13 11 8 8 8 8 6 8 7 9 9 7 10 10 7 8
1 0 2 6 8 9 10 9 8 6 6 7 7 8 8 9 9 9 7 6 6 9 16 9 9 10 9 7 9 10 8 7 6 5 6 6 6 8
4 4 6 7 7 7 8 7 7 6 6 6 6 6 7 8 9 8 8 8 7 6 7 9 8 11 8 9 11 11 9 9 9 7 6 5 9 12
4 5 5 5 6 7 7 7 8 7 7 6 5 6 8 8 8 9 9 8 7 8 7 5 5 6 7 9 11 11 10 8 9 8 7 7 6 8
2 4 5 6 7 8 8 8 8 8 7 7 6 7 8 9 9 9 10 10 10 9 9 8 8 6 4 4 10 11 9 8 8 9 8 7 8 7
4 5 6 6 7 7 7 7 7 7 7 7 7 7 8 9 10 11 11 11 10 10 10 10 10 10 10 9 8 12 10 8 9 8 7 6 7 8
6 6 6 6 6 6 7 7 6 6 7 7 7 7 9 10 11 12 12 12 11 10 10 10 11 11 10 9 7 7 13 10 9 8 8 5 4 8
6 6 6 6 6 6 6 6 6 5 6 7 7 8 9 10 11 12 12 15 13 12 13 13 12 12 5 7 9 7 6 12 14 9 9 7 5 5
5 5 5 5 5 5 5 5 5 5 6 6 7 8 9 10 11 13 13 14 13 12 12 11 10 9 6 8 10 10 7 6 8 14 12 8 6 8
4 4 4 4 4 4 5 6 7 6 6 6 7 8 9 10 10 11 13 13 12 12 12 10 10 8 7 7 9 9 10 9 7 6 5 10 10 9
Wind_Direction
259 267 268 275 280 279 282 282 254 222 200 187 161 152 132 116 142 148 138 163 181 192 197 200 202 204 207 209 212 214 215 217 219 220 221 224 226 228
235 247 256 262 277 280 275 279 283 261 233 195 169 149 144 139 142 123 116 127 138 168 179 186 191 194 197 200 203 205 206 207 209 213 217 220 220 219
236 232 232 236 254 274 277 270 265 271 258 221 156 141 133 130 129 124 133 116 97 116 140 150 158 164 168 172 176 180 184 187 193 198 202 206 208 208
234 231 229 228 227 242 260 267 265 257 256 227 148 145 142 136 138 134 124 107 98 96 107 114 121 128 133 136 140 143 146 148 152 156 162 170 177 179
234 230 227 222 223 225 234 245 251 249 244 228 176 157 148 142 133 120 111 109 104 103 97 99 104 109 114 118 121 124 125 126 127 127 127 128 129 132
234 232 229 223 220 219 226 231 233 236 234 227 198 165 157 152 141 135 130 126 121 111 96 99 100 99 104 110 115 118 120 119 119 118 116 114 113 112
236 231 232 224 221 215 215 213 217 220 222 216 206 179 163 162 160 152 141 129 116 126 121 118 108 99 98 103 110 116 117 117 117 115 114 113 111 109
244 234 235 232 225 211 205 198 202 213 213 211 205 190 179 173 164 155 147 145 140 152 136 126 119 109 102 98 114 119 118 118 117 116 115 114 112 110
250 239 237 234 214 208 204 201 204 212 210 209 207 201 183 174 166 162 162 159 143 154 137 119 108 95 88 101 117 120 121 121 120 119 118 116 114 111
243 233 226 243 236 213 204 205 207 207 205 204 208 205 181 165 168 164 156 134 121 133 130 118 116 105 99 100 113 121 124 125 125 124 122 119 114 110
242 232 221 224 229 217 208 206 207 204 205 200 191 187 180 164 167 156 150 147 146 146 131 119 128 115 104 104 112 122 129 131 132 132 130 127 120 110
239 240 232 224 215 206 208 209 208 202 190 189 187 185 187 179 180 173 163 160 152 151 161 132 147 137 119 119 130 136 130 133 139 142 143 141 133 122
235 233 227 206 200 201 207 210 214 199 187 184 186 188 188 186 182 178 176 169 163 157 162 147 159 150 131 141 153 160 152 153 151 155 165 171 171 149
238 241 233 202 196 197 203 196 183 183 184 185 188 189 192 191 184 178 181 175 164 154 161 155 158 161 142 144 150 162 163 168 168 169 181 192 204 184
271 259 195 191 189 199 207 186 176 193 199 194 198 197 193 187 174 167 165 150 129 143 159 159 153 156 151 151 151 160 164 173 177 173 174 174 174 162
209 189 181 188 205 212 191 194 207 214 209 205 195 193 182 179 173 163 160 149 133 126 142 157 154 155 155 149 152 161 164 168 177 178 172 172 179 178
188 185 188 187 200 209 203 197 204 208 215 211 196 189 178 180 172 161 161 154 147 151 148 142 138 142 148 151 157 164 167 167 172 174 168 175 184 183
200 207 210 212 212 212 209 205 204 207 206 200 195 186 180 177 171 164 165 162 156 156 157 158 151 142 139 156 166 165 170 169 168 169 174 175 181 183
217 224 224 224 225 225 219 215 208 207 203 196 193 186 179 174 171 169 169 165 162 161 163 164 166 167 172 174 179 178 170 164 161 167 182 183 179 177
230 231 227 230 235 229 222 221 215 203 200 198 192 180 176 173 174 173 173 168 164 161 164 172 177 181 183 172 158 171 175 160 158 167 185 197 169 164
229 231 232 230 231 225 217 217 213 203 196 192 188 178 176 174 175 172 170 166 165 167 172 179 186 185 178 146 146 151 157 164 166 169 181 185 169 157
251 244 243 237 227 219 213 211 203 199 194 194 187 180 176 176 175 170 169 171 174 172 173 174 171 181 185 167 162 159 152 149 159 171 176 186 180 181
255 253 245 238 227 214 210 207 205 198 192 192 187 179 176 174 172 169 168 171 172 169 167 167 171 181 184 170 157 156 158 158 160 161 153 141 125 131
Height
1459 1459 1460 1462 1464 1465 1467 1470 1473 1473 1475 1477 1479 1482 1484 1486 1488 1491 1493 1495 1497 1500 1503 1506 1509 1513 1517 1520 1524 1527 1530 1533 1536 1540 1543 1545 1548 1550
1454 1454 1455 1456 1458 1460 1462 1465 1467 1470 1472 1473 1475 1478 1481 1483 1485 1487 1489 1491 1493 1496 1499 1502 1506 1509 1513 1516 1519 1523 1526 1528 1531 1534 1537 1540 1542 1544
1450 1450 1450 1451 1452 1454 1456 1459 1462 1465 1467 1470 1472 1474 1477 1479 1482 1484 1486 1488 1490 1492 1495 1499 1502 1506 1509 1513 1516 1519 1521 1524 1527 1529 1532 1534 1536 1539
1444 1445 1445 1446 1447 1448 1450 1453 1456 1460 1463 1466 1468 1470 1474 1476 1479 1481 1483 1485 1487 1489 1492 1496 1499 1503 1506 1509 1513 1515 1518 1520 1523 1525 1527 1530 1532 1534
1438 1439 1440 1440 1441 1443 1444 1446 1450 1454 1457 1461 1464 1467 1470 1474 1476 1479 1481 1483 1485 1487 1490 1493 1497 1500 1503 1506 1509 1512 1514 1517 1519 1521 1523 1526 1528 1529
1431 1432 1434 1435 1436 1437 1438 1440 1443 1447 1451 1455 1459 1463 1466 1470 1473 1475 1478 1481 1483 1485 1488 1491 1494 1497 1501 1503 1506 1509 1511 1514 1516 1518 1520 1522 1524 1526
1423 1425 1427 1429 1430 1431 1432 1434 1437 1440 1444 1448 1453 1457 1461 1465 1468 1472 1475 1478 1482 1484 1486 1489 1492 1495 1498 1501 1504 1507 1509 1511 1514 1516 1518 1520 1522 1524
1414 1417 1420 1422 1424 1425 1426 1428 1431 1433 1437 1440 1446 1450 1454 1459 1463 1467 1470 1474 1479 1483 1485 1488 1491 1493 1496 1499 1502 1505 1508 1510 1512 1515 1517 1519 1521 1522
1406 1409 1413 1416 1418 1419 1420 1422 1424 1426 1430 1434 1438 1443 1448 1453 1457 1461 1466 1471 1475 1479 1483 1486 1489 1492 1495 1498 1501 1504 1507 1509 1511 1514 1516 1518 1520 1522
1398 1402 1405 1409 1412 1413 1415 1416 1418 1420 1424 1428 1433 1438 1442 1447 1453 1457 1462 1468 1473 1478 1481 1484 1487 1491 1494 1497 1500 1503 1506 1508 1511 1513 1515 1517 1519 1521
1391 1395 1398 1402 1405 1408 1410 1412 1413 1415 1418 1422 1427 1431 1436 1442 1447 1453 1458 1463 1468 1474 1478 1480 1484 1488 1493 1496 1499 1502 1505 1507 1510 1512 1515 1516 1518 1520
1384 1388 1392 1396 1399 1402 1405 1407 1409 1411 1414 1417 1421 1426 1431 1436 1441 1447 1451 1457 1462 1469 1473 1476 1480 1485 1490 1494 1497 1500 1503 1506 1508 1511 1513 1515 1517 1518
1379 1383 1386 1390 1394 1397 1401 1404 1406 1408 1411 1413 1416 1421 1426 1431 1436 1441 1448 1452 1457 1461 1466 1471 1476 1481 1484 1489 1494 1498 1501 1504 1507 1509 1511 1513 1515 1517
1376 1379 1382 1386 1389 1393 1397 1400 1403 1405 1407 1410 1413 1416 1421 1426 1431 1437 1443 1449 1454 1459 1462 1467 1471 1476 1480 1485 1489 1494 1499 1502 1505 1508 1510 1512 1514 1515
1373 1376 1379 1382 1386 1390 1393 1396 1399 1402 1404 1407 1409 1412 1416 1421 1427 1433 1439 1445 1450 1455 1460 1465 1469 1473 1477 1481 1485 1489 1494 1499 1503 1506 1508 1510 1513 1515
1371 1374 1377 1380 1383 1387 1390 1393 1395 1398 1401 1404 1406 1409 1413 1417 1422 1428 1433 1439 1445 1451 1457 1462 1467 1472 1475 1480 1483 1487 1491 1495 1499 1503 1507 1509 1512 1514
1370 1373 1375 1378 1381 1384 1386 1389 1392 1395 1398 1400 1403 1406 1409 1414 1418 1424 1429 1434 1439 1445 1452 1459 1465 1470 1475 1478 1481 1485 1489 1493 1497 1501 1505 1508 1511 1513
1369 1371 1373 1376 1378 1381 1383 1386 1388 1391 1394 1396 1399 1402 1405 1409 1414 1420 1425 1430 1435 1441 1448 1454 1460 1467 1474 1478 1481 1483 1487 1491 1495 1499 1503 1506 1509 1512
1367 1369 1371 1373 1375 1378 1380 1382 1384 1387 1390 1392 1395 1398 1402 1406 1410 1415 1420 1426 1432 1438 1444 1450 1455 1461 1467 1473 1478 1482 1485 1489 1493 1497 1501 1505 1508 1510
1365 1367 1368 1370 1372 1374 1376 1378 1381 1383 1386 1388 1391 1394 1398 1402 1406 1411 1416 1421 1427 1434 1440 1446 1451 1457 1463 1468 1473 1478 1484 1487 1491 1495 1499 1503 1507 1510
1364 1365 1366 1367 1369 1370 1372 1375 1377 1379 1381 1384 1387 1390 1394 1397 1401 1406 1412 1417 1423 1429 1435 1441 1448 1456 1463 1468 1472 1476 1481 1486 1489 1493 1497 1501 1504 1506
1362 1362 1363 1364 1365 1367 1369 1371 1373 1375 1377 1379 1382 1386 1389 1393 1397 1402 1407 1413 1419 1425 1432 1439 1446 1454 1459 1464 1468 1473 1478 1484 1488 1492 1496 1499 1501 1503
1359 1360 1360 1361 1362 1363 1365 1367 1369 1371 1373 1375 1378 1382 1385 1389 1394 1399 1404 1410 1416 1422 1429 1436 1443 1450 1456 1462 1466 1470 1475 1480 1485 1490 1493 1496 1499 1501